TimeEST,TemperatureF,Dew PointF,Humidity,Sea Level PressureIn,VisibilityMPH,Wind Direction,Wind SpeedMPH,Gust SpeedMPH,PrecipitationIn,Events,Conditions,WindDirDegrees,DateUTC
12:53 AM,23.0,18.0,81,29.74,10.0,NNW,4.6,-,N/A,,Overcast,340,2013-01-22 05:53:00
1:41 AM,23.0,19.4,86,29.77,10.0,NW,5.8,-,N/A,,Overcast,310,2013-01-22 06:41:00
1:53 AM,23.0,19.0,85,29.76,10.0,NW,6.9,-,N/A,,Overcast,320,2013-01-22 06:53:00
2:53 AM,23.0,18.0,81,29.75,10.0,WNW,6.9,-,N/A,,Overcast,300,2013-01-22 07:53:00
3:00 AM,23.0,17.6,80,29.75,9.0,NW,8.1,-,N/A,,Overcast,320,2013-01-22 08:00:00
3:53 AM,18.0,14.0,84,29.74,10.0,NNW,6.9,-,N/A,,Scattered Clouds,330,2013-01-22 08:53:00
4:53 AM,19.9,16.0,85,29.74,10.0,WNW,8.1,-,N/A,,Clear,300,2013-01-22 09:53:00
5:53 AM,19.0,15.1,85,29.75,10.0,WNW,4.6,-,N/A,,Clear,290,2013-01-22 10:53:00
6:53 AM,18.0,15.1,88,29.77,10.0,West,4.6,-,N/A,,Clear,280,2013-01-22 11:53:00
7:53 AM,19.9,15.1,81,29.79,10.0,West,10.4,-,N/A,,Clear,280,2013-01-22 12:53:00
8:53 AM,21.9,10.9,63,29.81,10.0,WNW,15.0,21.9,N/A,,Clear,300,2013-01-22 13:53:00
9:53 AM,24.1,10.9,57,29.83,10.0,WNW,11.5,20.7,N/A,,Clear,300,2013-01-22 14:53:00
10:53 AM,24.1,6.1,46,29.83,10.0,WNW,17.3,23.0,N/A,,Clear,300,2013-01-22 15:53:00
11:53 AM,24.1,5.0,44,29.83,10.0,West,16.1,25.3,N/A,,Scattered Clouds,280,2013-01-22 16:53:00
12:53 PM,24.1,3.9,42,29.83,10.0,WNW,16.1,21.9,N/A,,Overcast,290,2013-01-22 17:53:00
1:53 PM,23.0,3.0,42,29.84,10.0,NW,16.1,23.0,N/A,,Overcast,310,2013-01-22 18:53:00
2:53 PM,25.0,1.9,37,29.87,10.0,West,11.5,-,N/A,,Overcast,280,2013-01-22 19:53:00
3:53 PM,23.0,-2.0,34,29.89,10.0,WNW,12.7,19.6,N/A,,Scattered Clouds,300,2013-01-22 20:53:00
4:53 PM,21.0,-2.9,35,29.92,10.0,WNW,12.7,19.6,N/A,,Scattered Clouds,290,2013-01-22 21:53:00
5:53 PM,19.0,-2.9,38,29.95,10.0,West,9.2,-,N/A,,Clear,280,2013-01-22 22:53:00
6:53 PM,18.0,-2.0,41,29.99,10.0,West,10.4,-,N/A,,Clear,280,2013-01-22 23:53:00
7:53 PM,17.1,-2.9,41,30.01,10.0,WNW,12.7,19.6,N/A,,Clear,290,2013-01-23 00:53:00
8:53 PM,16.0,-0.9,47,30.02,10.0,WNW,6.9,-,N/A,,Clear,290,2013-01-23 01:53:00
9:53 PM,14.0,-0.0,54,30.04,10.0,WNW,3.5,-,N/A,,Clear,300,2013-01-23 02:53:00
10:53 PM,12.9,-0.9,54,30.06,10.0,West,4.6,-,N/A,,Clear,280,2013-01-23 03:53:00
11:53 PM,12.9,-2.0,51,30.05,10.0,West,4.6,-,N/A,,Clear,280,2013-01-23 04:53:00